Time,TemperatureF,DewpointF,PressureIn,WindDirection,WindDirectionDegrees,WindSpeedMPH,WindSpeedGustMPH,Humidity,HourlyPrecipIn,Conditions,Clouds,dailyrainin,SoftwareType,DateUTC
2013-06-21 00:57:00,78.1,64.3,29.27,South,180,7.8,7.8,62,0.00,,,0.00,WUHU21623XXSP,2013-06-21 05:57:00,
2013-06-21 01:57:00,77.2,63.9,29.27,SSE,158,2.5,2.5,63,0.00,,,0.00,WUHU21623XXSP,2013-06-21 06:57:00,
2013-06-21 02:57:00,76.3,64.8,29.26,SE,135,0.0,0.0,67,0.00,,,0.00,WUHU21623XXSP,2013-06-21 07:57:00,
2013-06-21 03:57:00,75.4,65.1,29.25,SE,135,0.7,0.7,70,0.00,,,0.00,WUHU21623XXSP,2013-06-21 08:57:00,
2013-06-21 04:53:00,75.0,65.0,29.24,SSE,157,1.8,1.8,71,0.00,,,0.00,WUHU21623XXSP,2013-06-21 09:53:00,
2013-06-21 04:58:00,75.0,65.0,29.24,West,270,0.0,3.8,71,0.00,,,0.00,WUHU21623XXSP,2013-06-21 09:58:00,
2013-06-21 05:03:00,75.0,65.4,29.25,SSE,157,2.5,3.8,72,0.00,,,0.00,WUHU21623XXSP,2013-06-21 10:03:00,
2013-06-21 05:08:00,75.0,65.4,29.25,South,180,1.8,4.0,72,0.00,,,0.00,WUHU21623XXSP,2013-06-21 10:08:00,
2013-06-21 05:13:00,75.0,65.4,29.25,SSW,202,0.0,4.5,72,0.00,,,0.00,WUHU21623XXSP,2013-06-21 10:13:00,
2013-06-21 05:18:00,75.0,65.4,29.25,SSW,202,0.0,4.5,72,0.00,,,0.00,WUHU21623XXSP,2013-06-21 10:18:00,
2013-06-21 05:23:00,75.0,65.4,29.25,SSW,202,0.0,8.1,72,0.00,,,0.00,WUHU21623XXSP,2013-06-21 10:23:00,
2013-06-21 05:28:00,75.0,65.4,29.25,SSW,202,3.1,8.1,72,0.00,,,0.00,WUHU21623XXSP,2013-06-21 10:28:00,
2013-06-21 05:33:00,75.0,65.4,29.25,SSE,157,0.9,3.1,72,0.00,,,0.00,WUHU21623XXSP,2013-06-21 10:33:00,
2013-06-21 05:38:00,75.0,65.4,29.25,ESE,112,0.0,4.3,72,0.00,,,0.00,WUHU21623XXSP,2013-06-21 10:38:00,
2013-06-21 05:43:00,75.0,65.4,29.25,SSE,157,4.5,6.7,72,0.00,,,0.00,WUHU21623XXSP,2013-06-21 10:43:00,
2013-06-21 05:48:00,75.0,65.4,29.25,SSW,202,0.4,6.7,72,0.00,,,0.00,WUHU21623XXSP,2013-06-21 10:48:00,
2013-06-21 05:53:00,74.8,65.2,29.25,SSW,202,0.0,1.8,72,0.00,,,0.00,WUHU21623XXSP,2013-06-21 10:53:00,
2013-06-21 05:58:00,74.8,65.2,29.24,SE,135,7.4,7.4,72,0.00,,,0.00,WUHU21623XXSP,2013-06-21 10:58:00,
2013-06-21 06:03:00,74.8,65.2,29.25,South,180,0.0,7.4,72,0.00,,,0.00,WUHU21623XXSP,2013-06-21 11:03:00,
2013-06-21 06:08:00,74.8,65.2,29.25,SE,135,0.0,3.6,72,0.00,,,0.00,WUHU21623XXSP,2013-06-21 11:08:00,
2013-06-21 06:13:00,74.8,65.2,29.24,SE,135,0.0,0.0,72,0.00,,,0.00,WUHU21623XXSP,2013-06-21 11:13:00,
2013-06-21 06:18:00,74.7,65.0,29.24,South,180,0.9,0.9,72,0.00,,,0.00,WUHU21623XXSP,2013-06-21 11:18:00,
2013-06-21 06:23:00,74.5,65.2,29.24,South,180,0.0,0.9,72,0.00,,,0.00,WUHU21623XXSP,2013-06-21 11:23:00,
2013-06-21 06:28:00,74.7,65.4,29.24,SSE,157,2.7,2.7,73,0.00,,,0.00,WUHU21623XXSP,2013-06-21 11:28:00,
2013-06-21 06:33:00,74.8,65.6,29.25,SSE,157,0.2,2.7,73,0.00,,,0.00,WUHU21623XXSP,2013-06-21 11:33:00,
2013-06-21 06:38:00,74.8,65.6,29.25,SW,225,1.1,2.7,73,0.00,,,0.00,WUHU21623XXSP,2013-06-21 11:38:00,
2013-06-21 06:43:00,75.0,65.4,29.25,SE,135,4.7,4.7,72,0.00,,,0.00,WUHU21623XXSP,2013-06-21 11:43:00,
2013-06-21 06:48:00,75.0,65.4,29.24,SE,135,0.0,4.7,73,0.00,,,0.00,WUHU21623XXSP,2013-06-21 11:48:00,
2013-06-21 06:53:00,75.4,66.1,29.25,South,180,0.0,0.0,73,0.00,,,0.00,WUHU21623XXSP,2013-06-21 11:53:00,
2013-06-21 06:58:00,75.6,65.9,29.25,SE,135,2.2,2.2,72,0.00,,,0.00,WUHU21623XXSP,2013-06-21 11:58:00,
2013-06-21 07:03:00,75.7,66.1,29.24,ESE,112,3.6,3.6,72,0.00,,,0.00,WUHU21623XXSP,2013-06-21 12:03:00,
2013-06-21 07:08:00,75.9,66.6,29.24,SW,225,0.0,3.6,73,0.00,,,0.00,WUHU21623XXSP,2013-06-21 12:08:00,
2013-06-21 07:13:00,76.3,66.6,29.25,South,180,0.0,3.6,72,0.00,,,0.00,WUHU21623XXSP,2013-06-21 12:13:00,
2013-06-21 07:18:00,76.5,66.8,29.25,SSW,202,0.0,0.0,72,0.00,,,0.00,WUHU21623XXSP,2013-06-21 12:18:00,
2013-06-21 07:23:00,76.8,67.1,29.25,SSW,202,2.7,2.7,72,0.00,,,0.00,WUHU21623XXSP,2013-06-21 12:23:00,
2013-06-21 07:28:00,77.0,67.3,29.24,SSE,157,5.8,5.8,72,0.00,,,0.00,WUHU21623XXSP,2013-06-21 12:28:00,
2013-06-21 07:33:00,77.4,67.1,29.24,SSE,157,0.0,5.8,71,0.00,,,0.00,WUHU21623XXSP,2013-06-21 12:33:00,
2013-06-21 07:38:00,77.5,67.4,29.24,West,270,2.0,2.0,71,0.00,,,0.00,WUHU21623XXSP,2013-06-21 12:38:00,
2013-06-21 07:43:00,77.7,67.6,29.24,West,270,2.0,2.0,71,0.00,,,0.00,WUHU21623XXSP,2013-06-21 12:43:00,
2013-06-21 07:48:00,77.9,67.7,29.24,South,180,0.0,2.0,71,0.00,,,0.00,WUHU21623XXSP,2013-06-21 12:48:00,
2013-06-21 07:53:00,78.1,67.5,29.23,SW,225,0.0,0.0,70,0.00,,,0.00,WUHU21623XXSP,2013-06-21 12:53:00,
2013-06-21 07:58:00,78.4,67.9,29.23,South,180,4.3,4.3,70,0.00,,,0.00,WUHU21623XXSP,2013-06-21 12:58:00,
2013-06-21 08:03:00,78.6,68.0,29.23,SSW,202,1.6,4.3,70,0.00,,,0.00,WUHU21623XXSP,2013-06-21 13:03:00,
2013-06-21 08:08:00,78.6,68.0,29.23,SSW,202,0.4,4.3,70,0.00,,,0.00,WUHU21623XXSP,2013-06-21 13:08:00,
2013-06-21 08:13:00,79.0,68.4,29.23,SW,225,0.9,0.9,70,0.00,,,0.00,WUHU21623XXSP,2013-06-21 13:13:00,
2013-06-21 08:18:00,79.3,68.3,29.23,SSE,157,0.0,2.5,69,0.00,,,0.00,WUHU21623XXSP,2013-06-21 13:18:00,
2013-06-21 08:23:00,79.5,68.5,29.24,WSW,247,2.2,2.5,69,0.00,,,0.00,WUHU21623XXSP,2013-06-21 13:23:00,
2013-06-21 08:28:00,79.5,68.5,29.24,SW,225,3.4,3.4,69,0.00,,,0.00,WUHU21623XXSP,2013-06-21 13:28:00,
2013-06-21 08:33:00,79.5,68.5,29.24,ESE,112,4.9,4.9,69,0.00,,,0.00,WUHU21623XXSP,2013-06-21 13:33:00,
2013-06-21 08:38:00,79.9,68.6,29.24,NW,315,1.6,4.9,69,0.00,,,0.00,WUHU21623XXSP,2013-06-21 13:38:00,
2013-06-21 08:43:00,80.1,68.5,29.24,SSE,157,0.0,1.6,68,0.00,,,0.00,WUHU21623XXSP,2013-06-21 13:43:00,
2013-06-21 08:48:00,80.2,68.7,29.24,SW,225,1.8,1.8,68,0.00,,,0.00,WUHU21623XXSP,2013-06-21 13:48:00,
2013-06-21 08:53:00,80.4,68.9,29.25,SSW,202,0.0,1.8,68,0.00,,,0.00,WUHU21623XXSP,2013-06-21 13:53:00,
2013-06-21 08:58:00,80.4,68.9,29.25,SW,225,2.0,3.4,68,0.00,,,0.00,WUHU21623XXSP,2013-06-21 13:58:00,
2013-06-21 09:03:00,81.0,69.4,29.25,SSW,202,7.2,7.2,68,0.00,,,0.00,WUHU21623XXSP,2013-06-21 14:03:00,
2013-06-21 09:08:00,81.0,69.4,29.24,SE,135,0.2,7.2,68,0.00,,,0.00,WUHU21623XXSP,2013-06-21 14:08:00,
2013-06-21 09:13:00,81.3,69.6,29.25,WSW,247,0.9,4.3,68,0.00,,,0.00,WUHU21623XXSP,2013-06-21 14:13:00,
2013-06-21 09:18:00,81.5,69.9,29.25,West,270,4.3,4.3,68,0.00,,,0.00,WUHU21623XXSP,2013-06-21 14:18:00,
2013-06-21 09:23:00,82.0,70.4,29.25,SSE,157,0.0,4.3,68,0.00,,,0.00,WUHU21623XXSP,2013-06-21 14:23:00,
2013-06-21 09:28:00,82.4,70.7,29.25,South,180,2.0,3.6,68,0.00,,,0.00,WUHU21623XXSP,2013-06-21 14:28:00,
2013-06-21 09:33:00,82.6,70.4,29.25,SSW,202,0.9,2.7,67,0.00,,,0.00,WUHU21623XXSP,2013-06-21 14:33:00,
2013-06-21 09:38:00,83.1,70.3,29.25,WSW,247,4.9,4.9,66,0.00,,,0.00,WUHU21623XXSP,2013-06-21 14:38:00,
2013-06-21 09:43:00,83.3,70.7,29.25,SE,135,0.0,4.9,66,0.00,,,0.00,WUHU21623XXSP,2013-06-21 14:43:00,
2013-06-21 09:48:00,83.5,70.9,29.25,SE,135,0.7,2.7,66,0.00,,,0.00,WUHU21623XXSP,2013-06-21 14:48:00,
2013-06-21 09:53:00,84.0,71.4,29.25,SSE,157,2.2,7.8,66,0.00,,,0.00,WUHU21623XXSP,2013-06-21 14:53:00,
2013-06-21 09:58:00,84.4,71.3,29.26,West,270,0.0,7.8,65,0.00,,,0.00,WUHU21623XXSP,2013-06-21 14:58:00,
2013-06-21 10:03:00,84.6,71.5,29.27,West,270,0.0,2.9,65,0.00,,,0.00,WUHU21623XXSP,2013-06-21 15:03:00,
2013-06-21 10:08:00,84.7,71.7,29.27,South,180,0.0,2.9,65,0.00,,,0.00,WUHU21623XXSP,2013-06-21 15:08:00,
2013-06-21 10:13:00,85.5,71.9,29.26,SE,135,2.2,5.4,64,0.00,,,0.00,WUHU21623XXSP,2013-06-21 15:13:00,
2013-06-21 10:18:00,85.6,72.1,29.26,SW,225,2.0,6.0,64,0.00,,,0.00,WUHU21623XXSP,2013-06-21 15:18:00,
2013-06-21 10:23:00,85.8,72.2,29.25,SW,225,3.1,6.0,64,0.00,,,0.00,WUHU21623XXSP,2013-06-21 15:23:00,
2013-06-21 10:28:00,86.2,72.6,29.25,SSE,157,2.0,7.6,64,0.00,,,0.00,WUHU21623XXSP,2013-06-21 15:28:00,
2013-06-21 10:33:00,86.4,72.3,29.25,SE,135,1.1,7.6,63,0.00,,,0.00,WUHU21623XXSP,2013-06-21 15:33:00,
2013-06-21 10:38:00,86.7,72.6,29.25,WSW,247,1.8,7.6,63,0.00,,,0.00,WUHU21623XXSP,2013-06-21 15:38:00,
2013-06-21 10:43:00,86.9,72.8,29.25,SSW,202,0.9,7.6,63,0.00,,,0.00,WUHU21623XXSP,2013-06-21 15:43:00,
2013-06-21 10:48:00,86.9,72.8,29.25,SW,225,4.7,4.7,63,0.00,,,0.00,WUHU21623XXSP,2013-06-21 15:48:00,
2013-06-21 10:53:00,86.9,72.8,29.26,South,180,1.6,4.7,63,0.00,,,0.00,WUHU21623XXSP,2013-06-21 15:53:00,
2013-06-21 10:58:00,87.1,72.5,29.27,SSE,157,1.1,4.0,62,0.00,,,0.00,WUHU21623XXSP,2013-06-21 15:58:00,
2013-06-21 11:03:00,87.1,72.5,29.27,SW,225,3.8,3.8,62,0.00,,,0.00,WUHU21623XXSP,2013-06-21 16:03:00,
2013-06-21 11:08:00,86.5,72.0,29.28,West,270,0.9,3.8,62,0.00,,,0.00,WUHU21623XXSP,2013-06-21 16:08:00,
2013-06-21 11:13:00,86.2,71.6,29.29,WSW,247,0.0,0.9,62,0.00,,,0.00,WUHU21623XXSP,2013-06-21 16:13:00,
2013-06-21 11:18:00,85.8,71.7,29.30,West,270,0.0,0.4,63,0.00,,,0.00,WUHU21623XXSP,2013-06-21 16:18:00,
2013-06-21 11:23:00,85.5,71.4,29.30,West,270,0.0,0.4,63,0.00,,,0.00,WUHU21623XXSP,2013-06-21 16:23:00,
2013-06-21 11:28:00,85.3,71.2,29.31,West,270,0.0,0.0,63,0.00,,,0.00,WUHU21623XXSP,2013-06-21 16:28:00,
2013-06-21 11:33:00,85.1,71.5,29.31,West,270,0.0,0.0,64,0.00,,,0.00,WUHU21623XXSP,2013-06-21 16:33:00,
2013-06-21 11:38:00,84.7,71.2,29.31,WSW,247,0.0,0.0,64,0.00,,,0.00,WUHU21623XXSP,2013-06-21 16:38:00,
2013-06-21 11:43:00,84.7,71.2,29.31,WSW,247,0.0,0.0,64,0.00,,,0.00,WUHU21623XXSP,2013-06-21 16:43:00,
2013-06-21 11:48:00,84.7,71.2,29.31,WSW,247,0.0,0.0,64,0.00,,,0.00,WUHU21623XXSP,2013-06-21 16:48:00,
2013-06-21 11:53:00,84.9,71.8,29.31,WSW,247,0.0,0.0,65,0.00,,,0.00,WUHU21623XXSP,2013-06-21 16:53:00,
2013-06-21 11:58:00,85.1,71.5,29.30,WSW,247,0.0,0.0,64,0.00,,,0.00,WUHU21623XXSP,2013-06-21 16:58:00,
2013-06-21 12:04:00,85.3,71.7,29.31,WSW,247,0.0,0.0,64,0.00,,,0.00,WUHU21623XXSP,2013-06-21 17:04:00,
2013-06-21 12:09:00,85.3,71.7,29.31,NNE,22,0.9,0.9,64,0.00,,,0.00,WUHU21623XXSP,2013-06-21 17:09:00,
2013-06-21 12:14:00,85.3,71.7,29.32,NNE,22,3.1,3.1,64,0.00,,,0.00,WUHU21623XXSP,2013-06-21 17:14:00,
2013-06-21 12:19:00,84.9,71.8,29.32,North,0,1.6,3.1,65,0.00,,,0.00,WUHU21623XXSP,2013-06-21 17:19:00,
2013-06-21 12:24:00,84.7,71.8,29.32,NNE,22,0.9,3.1,65,0.00,,,0.00,WUHU21623XXSP,2013-06-21 17:24:00,
2013-06-21 12:30:00,83.5,69.5,29.33,North,0,7.6,7.6,58,0.00,,,0.00,WUHU21623XXSP,2013-06-21 17:30:00,
2013-06-21 12:35:00,81.3,65.9,29.34,North,0,7.6,7.6,58,0.00,,,0.00,WUHU21623XXSP,2013-06-21 17:35:00,
2013-06-21 12:40:00,79.2,63.7,29.34,North,0,8.1,8.1,59,0.00,,,0.00,WUHU21623XXSP,2013-06-21 17:40:00,
2013-06-21 12:45:00,78.4,63.2,29.33,ENE,67,6.5,8.1,59,0.00,,,0.00,WUHU21623XXSP,2013-06-21 17:45:00,
2013-06-21 12:46:00,78.4,63.2,29.33,ENE,67,6.5,8.1,59,0.00,,,0.00,WUHU21623XXSP,2013-06-21 17:46:00,
2013-06-21 12:47:00,78.1,63.0,29.34,NNE,22,9.6,9.6,60,0.00,,,0.00,WUHU21623XXSP,2013-06-21 17:47:00,
2013-06-21 12:48:00,78.1,63.0,29.34,NNE,22,9.6,9.6,60,0.00,,,0.00,WUHU21623XXSP,2013-06-21 17:48:00,
2013-06-21 12:53:00,77.5,63.5,29.33,NNE,22,6.5,9.6,62,0.00,,,0.00,WUHU21623XXSP,2013-06-21 17:53:00,
2013-06-21 12:58:00,77.4,63.3,29.33,NE,45,6.3,6.5,62,0.00,,,0.00,WUHU21623XXSP,2013-06-21 17:58:00,
2013-06-21 13:03:00,77.5,63.5,29.33,NE,45,2.9,6.3,62,0.00,,,0.00,WUHU21623XXSP,2013-06-21 18:03:00,
2013-06-21 13:08:00,77.7,63.7,29.32,NNW,337,6.3,6.3,62,0.00,,,0.00,WUHU21623XXSP,2013-06-21 18:08:00,
2013-06-21 13:13:00,77.9,63.7,29.31,NNW,337,6.3,6.3,62,0.00,,,0.00,WUHU21623XXSP,2013-06-21 18:13:00,
2013-06-21 13:18:00,78.1,64.0,29.30,SE,135,1.1,6.3,62,0.00,,,0.00,WUHU21623XXSP,2013-06-21 18:18:00,
2013-06-21 13:23:00,78.1,64.5,29.30,SE,135,1.1,1.1,63,0.00,,,0.00,WUHU21623XXSP,2013-06-21 18:23:00,
2013-06-21 13:28:00,78.1,64.9,29.29,NE,45,5.6,5.6,64,0.00,,,0.00,WUHU21623XXSP,2013-06-21 18:28:00,
2013-06-21 13:33:00,77.5,65.3,29.29,NE,45,5.4,5.6,66,0.00,,,0.00,WUHU21623XXSP,2013-06-21 18:33:00,
2013-06-21 13:38:00,77.4,65.1,29.29,NE,45,0.0,5.4,66,0.00,,,0.00,WUHU21623XXSP,2013-06-21 18:38:00,
2013-06-21 13:44:00,77.4,65.5,29.29,NE,45,5.8,5.8,67,0.00,,,0.00,WUHU21623XXSP,2013-06-21 18:44:00,
2013-06-21 13:45:00,77.2,65.5,29.28,NE,45,5.8,5.8,67,0.00,,,0.00,WUHU21623XXSP,2013-06-21 18:45:00,
2013-06-21 13:47:00,77.2,65.5,29.28,NE,45,5.8,5.8,67,0.00,,,0.00,WUHU21623XXSP,2013-06-21 18:47:00,
2013-06-21 13:52:00,76.8,65.0,29.28,NNE,22,2.0,5.8,67,0.00,,,0.00,WUHU21623XXSP,2013-06-21 18:52:00,
2013-06-21 13:57:00,76.6,64.4,29.28,ENE,67,8.7,8.7,67,0.00,,,0.00,WUHU21623XXSP,2013-06-21 18:57:00,
2013-06-21 14:02:00,76.5,64.7,29.28,ENE,67,1.6,8.7,67,0.00,,,0.00,WUHU21623XXSP,2013-06-21 19:02:00,
2013-06-21 14:07:00,76.6,65.3,29.28,NE,45,1.6,1.6,68,0.00,,,0.00,WUHU21623XXSP,2013-06-21 19:07:00,
2013-06-21 14:12:00,76.6,64.8,29.27,NE,45,3.4,4.9,67,0.00,,,0.00,WUHU21623XXSP,2013-06-21 19:12:00,
2013-06-21 14:17:00,76.8,64.8,29.26,NE,45,3.4,4.9,67,0.00,,,0.00,WUHU21623XXSP,2013-06-21 19:17:00,
2013-06-21 14:20:00,76.8,65.0,29.27,SE,135,0.0,3.4,67,0.00,,,0.00,WUHU21623XXSP,2013-06-21 19:20:00,
2013-06-21 14:25:00,76.8,65.0,29.26,NNW,337,4.7,4.7,67,0.00,,,0.00,WUHU21623XXSP,2013-06-21 19:25:00,
2013-06-21 14:30:00,77.0,65.2,29.26,SE,135,1.8,4.7,67,0.00,,,0.00,WUHU21623XXSP,2013-06-21 19:30:00,
2013-06-21 14:35:00,77.2,65.4,29.26,North,0,0.0,3.4,67,0.00,,,0.00,WUHU21623XXSP,2013-06-21 19:35:00,
2013-06-21 14:40:00,77.5,65.7,29.26,ESE,112,0.0,15.7,67,0.00,,,0.00,WUHU21623XXSP,2013-06-21 19:40:00,
2013-06-21 14:42:00,77.5,65.7,29.25,SE,135,3.4,15.7,67,0.00,,,0.00,WUHU21623XXSP,2013-06-21 19:42:00,
2013-06-21 14:44:00,77.7,65.4,29.25,ESE,112,4.0,15.7,66,0.00,,,0.00,WUHU21623XXSP,2013-06-21 19:44:00,
2013-06-21 14:49:00,78.4,66.1,29.25,ESE,112,5.4,5.4,66,0.00,,,0.00,WUHU21623XXSP,2013-06-21 19:49:00,
2013-06-21 14:54:00,79.0,65.8,29.24,ESE,112,5.4,5.4,65,0.00,,,0.00,WUHU21623XXSP,2013-06-21 19:54:00,
2013-06-21 14:59:00,79.2,65.9,29.24,SSE,157,7.4,7.4,64,0.00,,,0.00,WUHU21623XXSP,2013-06-21 19:59:00,
2013-06-21 15:04:00,79.3,66.1,29.24,ESE,112,6.3,7.4,64,0.00,,,0.00,WUHU21623XXSP,2013-06-21 20:04:00,
2013-06-21 15:08:00,79.5,65.8,29.24,ESE,112,6.3,7.4,63,0.00,,,0.00,WUHU21623XXSP,2013-06-21 20:08:00,
2013-06-21 15:11:00,79.5,65.4,29.24,SE,135,7.8,7.8,62,0.00,,,0.00,WUHU21623XXSP,2013-06-21 20:11:00,
2013-06-21 15:13:00,79.5,65.4,29.24,East,90,4.5,7.8,62,0.00,,,0.00,WUHU21623XXSP,2013-06-21 20:13:00,
2013-06-21 15:18:00,79.3,65.2,29.23,SE,135,11.9,11.9,62,0.00,,,0.00,WUHU21623XXSP,2013-06-21 20:18:00,
2013-06-21 15:23:00,79.5,65.2,29.23,SE,135,11.9,11.9,62,0.00,,,0.00,WUHU21623XXSP,2013-06-21 20:23:00,
2013-06-21 15:28:00,79.5,65.4,29.23,SE,135,5.1,11.9,62,0.00,,,0.00,WUHU21623XXSP,2013-06-21 20:28:00,
2013-06-21 15:33:00,79.5,64.9,29.23,SSE,157,8.3,16.1,61,0.00,,,0.00,WUHU21623XXSP,2013-06-21 20:33:00,
2013-06-21 15:39:00,79.5,64.9,29.23,SSW,202,0.0,16.1,61,0.00,,,0.00,WUHU21623XXSP,2013-06-21 20:39:00,
2013-06-21 15:44:00,79.7,64.7,29.22,East,90,1.3,3.8,60,0.00,,,0.00,WUHU21623XXSP,2013-06-21 20:44:00,
2013-06-21 15:49:00,80.2,65.2,29.22,SE,135,2.0,5.8,60,0.00,,,0.00,WUHU21623XXSP,2013-06-21 20:49:00,
2013-06-21 15:54:00,80.6,65.5,29.21,ESE,112,5.1,5.1,60,0.00,,,0.00,WUHU21623XXSP,2013-06-21 20:54:00,
2013-06-21 15:59:00,81.3,65.6,29.21,SE,135,1.1,7.4,59,0.00,,,0.00,WUHU21623XXSP,2013-06-21 20:59:00,
2013-06-21 16:04:00,81.5,65.6,29.21,SE,135,6.3,7.4,59,0.00,,,0.00,WUHU21623XXSP,2013-06-21 21:04:00,
2013-06-21 16:09:00,82.0,65.7,29.21,East,90,3.1,6.3,58,0.00,,,0.00,WUHU21623XXSP,2013-06-21 21:09:00,
2013-06-21 16:14:00,82.0,65.7,29.20,SE,135,7.4,7.4,58,0.00,,,0.00,WUHU21623XXSP,2013-06-21 21:14:00,
2013-06-21 16:19:00,82.2,65.9,29.20,SE,135,6.0,7.4,58,0.00,,,0.00,WUHU21623XXSP,2013-06-21 21:19:00,
2013-06-21 16:24:00,82.2,65.9,29.20,South,180,7.2,9.2,58,0.00,,,0.00,WUHU21623XXSP,2013-06-21 21:24:00,
2013-06-21 16:29:00,82.6,66.2,29.20,SE,135,0.2,9.2,58,0.00,,,0.00,WUHU21623XXSP,2013-06-21 21:29:00,
2013-06-21 16:34:00,82.6,66.2,29.21,SE,135,8.5,13.2,58,0.00,,,0.00,WUHU21623XXSP,2013-06-21 21:34:00,
2013-06-21 16:39:00,82.6,66.2,29.21,SE,135,8.1,13.2,58,0.00,,,0.00,WUHU21623XXSP,2013-06-21 21:39:00,
2013-06-21 16:44:00,82.6,66.2,29.21,SSE,157,7.2,13.0,58,0.00,,,0.00,WUHU21623XXSP,2013-06-21 21:44:00,
2013-06-21 16:49:00,82.4,66.6,29.22,SE,135,4.0,16.6,59,0.00,,,0.00,WUHU21623XXSP,2013-06-21 21:49:00,
2013-06-21 16:54:00,82.2,65.9,29.21,SSW,202,6.5,16.6,58,0.00,,,0.00,WUHU21623XXSP,2013-06-21 21:54:00,
2013-06-21 16:59:00,82.2,65.9,29.21,SW,225,7.6,7.6,58,0.00,,,0.00,WUHU21623XXSP,2013-06-21 21:59:00,
2013-06-21 17:04:00,82.2,66.4,29.21,SSW,202,3.4,9.4,59,0.00,,,0.00,WUHU21623XXSP,2013-06-21 22:04:00,
2013-06-21 17:09:00,82.0,65.7,29.20,SE,135,6.5,16.1,58,0.00,,,0.00,WUHU21623XXSP,2013-06-21 22:09:00,
2013-06-21 17:14:00,82.0,65.7,29.19,SSE,157,0.0,16.1,58,0.00,,,0.00,WUHU21623XXSP,2013-06-21 22:14:00,
2013-06-21 17:19:00,82.0,65.7,29.20,SE,135,13.2,13.2,58,0.00,,,0.00,WUHU21623XXSP,2013-06-21 22:19:00,
2013-06-21 17:24:00,82.0,65.7,29.20,SE,135,7.4,13.2,58,0.00,,,0.00,WUHU21623XXSP,2013-06-21 22:24:00,
2013-06-21 17:29:00,82.0,66.3,29.19,SE,135,5.1,13.2,59,0.00,,,0.00,WUHU21623XXSP,2013-06-21 22:29:00,
2013-06-21 17:34:00,82.2,66.4,29.19,SSE,157,0.9,5.1,59,0.00,,,0.00,WUHU21623XXSP,2013-06-21 22:34:00,
2013-06-21 17:39:00,82.2,66.4,29.19,SSE,157,6.5,6.5,59,0.00,,,0.00,WUHU21623XXSP,2013-06-21 22:39:00,
2013-06-21 17:44:00,82.0,66.3,29.18,SE,135,6.3,6.5,59,0.00,,,0.00,WUHU21623XXSP,2013-06-21 22:44:00,
2013-06-21 17:49:00,82.0,66.3,29.17,SE,135,8.3,8.3,59,0.00,,,0.00,WUHU21623XXSP,2013-06-21 22:49:00,
2013-06-21 17:54:00,82.2,66.4,29.16,SSE,157,8.1,11.4,59,0.00,,,0.00,WUHU21623XXSP,2013-06-21 22:54:00,
2013-06-21 17:59:00,82.2,66.4,29.16,SE,135,6.0,11.4,59,0.00,,,0.00,WUHU21623XXSP,2013-06-21 22:59:00,
2013-06-21 18:04:00,82.4,66.6,29.16,South,180,1.6,8.1,59,0.00,,,0.00,WUHU21623XXSP,2013-06-21 23:04:00,
2013-06-21 18:09:00,82.6,67.3,29.16,SE,135,2.2,3.8,60,0.00,,,0.00,WUHU21623XXSP,2013-06-21 23:09:00,
2013-06-21 18:14:00,82.8,67.5,29.15,South,180,10.3,10.3,60,0.00,,,0.00,WUHU21623XXSP,2013-06-21 23:14:00,
2013-06-21 18:19:00,82.6,67.3,29.15,SE,135,8.1,10.3,60,0.00,,,0.00,WUHU21623XXSP,2013-06-21 23:19:00,
2013-06-21 18:24:00,82.2,66.9,29.15,SSE,157,0.7,8.1,60,0.00,,,0.00,WUHU21623XXSP,2013-06-21 23:24:00,
2013-06-21 18:29:00,82.2,66.9,29.15,SSE,157,2.5,7.6,60,0.00,,,0.00,WUHU21623XXSP,2013-06-21 23:29:00,
2013-06-21 18:34:00,82.2,67.4,29.15,SSE,157,7.6,7.6,61,0.00,,,0.00,WUHU21623XXSP,2013-06-21 23:34:00,
2013-06-21 18:39:00,82.6,67.7,29.15,SSW,202,5.6,7.6,61,0.00,,,0.00,WUHU21623XXSP,2013-06-21 23:39:00,
2013-06-21 18:44:00,82.8,67.9,29.14,SSE,157,10.1,10.1,61,0.00,,,0.00,WUHU21623XXSP,2013-06-21 23:44:00,
2013-06-21 18:49:00,82.6,67.7,29.14,SSE,157,1.3,10.1,61,0.00,,,0.00,WUHU21623XXSP,2013-06-21 23:49:00,
2013-06-21 18:54:00,82.6,67.7,29.14,SE,135,7.8,7.8,61,0.00,,,0.00,WUHU21623XXSP,2013-06-21 23:54:00,
2013-06-21 18:59:00,82.6,67.7,29.15,SSE,157,3.8,16.6,61,0.00,,,0.00,WUHU21623XXSP,2013-06-21 23:59:00,
2013-06-21 19:04:00,82.6,67.7,29.14,SE,135,4.5,16.6,61,0.00,,,0.00,WUHU21623XXSP,2013-06-22 00:04:00,
2013-06-21 19:09:00,82.6,68.2,29.15,SE,135,9.2,9.2,62,0.00,,,0.00,WUHU21623XXSP,2013-06-22 00:09:00,
2013-06-21 19:14:00,82.6,68.2,29.15,SE,135,9.2,9.2,62,0.00,,,0.00,WUHU21623XXSP,2013-06-22 00:14:00,
2013-06-21 19:20:00,82.6,68.2,29.15,SE,135,9.4,9.4,62,0.00,,,0.00,WUHU21623XXSP,2013-06-22 00:20:00,
2013-06-21 19:25:00,82.4,68.5,29.15,SSW,202,3.8,9.4,63,0.00,,,0.00,WUHU21623XXSP,2013-06-22 00:25:00,
2013-06-21 19:30:00,82.2,68.5,29.15,SSE,157,2.0,9.4,63,0.00,,,0.00,WUHU21623XXSP,2013-06-22 00:30:00,
2013-06-21 19:35:00,82.2,68.7,29.15,SSW,202,2.7,6.7,64,0.00,,,0.00,WUHU21623XXSP,2013-06-22 00:35:00,
2013-06-21 19:40:00,82.0,68.6,29.16,South,180,4.9,6.7,64,0.00,,,0.00,WUHU21623XXSP,2013-06-22 00:40:00,
2013-06-21 19:45:00,82.0,68.6,29.16,SE,135,2.9,5.4,64,0.00,,,0.00,WUHU21623XXSP,2013-06-22 00:45:00,
2013-06-21 19:50:00,82.0,69.0,29.17,SE,135,0.0,5.4,65,0.00,,,0.00,WUHU21623XXSP,2013-06-22 00:50:00,
2013-06-21 19:55:00,81.7,68.7,29.18,SE,135,0.0,2.9,65,0.00,,,0.00,WUHU21623XXSP,2013-06-22 00:55:00,
2013-06-21 20:00:00,81.7,68.7,29.19,SSE,157,0.0,2.0,65,0.00,,,0.00,WUHU21623XXSP,2013-06-22 01:00:00,
2013-06-21 20:05:00,81.3,69.0,29.18,SSE,157,0.4,0.4,66,0.00,,,0.00,WUHU21623XXSP,2013-06-22 01:05:00,
2013-06-21 20:10:00,81.3,68.8,29.19,SE,135,2.0,2.0,66,0.00,,,0.00,WUHU21623XXSP,2013-06-22 01:10:00,
2013-06-21 20:15:00,81.1,68.7,29.20,SE,135,1.6,2.0,66,0.00,,,0.00,WUHU21623XXSP,2013-06-22 01:15:00,
2013-06-21 20:20:00,81.1,69.1,29.20,SSE,157,0.9,1.6,67,0.00,,,0.00,WUHU21623XXSP,2013-06-22 01:20:00,
2013-06-21 20:25:00,81.0,69.0,29.20,SE,135,0.4,2.2,67,0.00,,,0.00,WUHU21623XXSP,2013-06-22 01:25:00,
2013-06-21 20:30:00,80.8,68.8,29.20,SSE,157,1.8,2.2,67,0.00,,,0.00,WUHU21623XXSP,2013-06-22 01:30:00,
2013-06-21 20:35:00,80.4,68.6,29.19,SSE,157,1.8,1.8,67,0.00,,,0.00,WUHU21623XXSP,2013-06-22 01:35:00,
2013-06-21 20:40:00,80.4,68.5,29.20,SE,135,7.6,7.6,67,0.00,,,0.00,WUHU21623XXSP,2013-06-22 01:40:00,
2013-06-21 20:45:00,80.4,68.5,29.20,SSE,157,2.0,7.6,67,0.00,,,0.00,WUHU21623XXSP,2013-06-22 01:45:00,
2013-06-21 20:50:00,80.2,68.3,29.20,SSE,157,2.0,2.0,67,0.00,,,0.00,WUHU21623XXSP,2013-06-22 01:50:00,
2013-06-21 20:55:00,79.9,68.1,29.20,SSE,157,0.9,4.3,68,0.00,,,0.00,WUHU21623XXSP,2013-06-22 01:55:00,
2013-06-21 21:00:00,79.9,68.4,29.20,South,180,1.6,5.6,68,0.00,,,0.00,WUHU21623XXSP,2013-06-22 02:00:00,
2013-06-21 21:05:00,79.9,68.4,29.20,SSW,202,2.5,5.6,68,0.00,,,0.00,WUHU21623XXSP,2013-06-22 02:05:00,
2013-06-21 21:10:00,79.7,68.2,29.20,SSE,157,3.6,3.6,68,0.00,,,0.00,WUHU21623XXSP,2013-06-22 02:10:00,
2013-06-21 21:15:00,79.7,68.2,29.20,SSW,202,5.6,5.6,68,0.00,,,0.00,WUHU21623XXSP,2013-06-22 02:15:00,
2013-06-21 21:20:00,79.5,68.5,29.20,SSE,157,2.9,5.6,69,0.00,,,0.00,WUHU21623XXSP,2013-06-22 02:20:00,
2013-06-21 21:25:00,79.5,68.5,29.21,SSE,157,3.1,3.1,69,0.00,,,0.00,WUHU21623XXSP,2013-06-22 02:25:00,
2013-06-21 21:30:00,79.3,68.3,29.21,SSE,157,9.4,9.4,69,0.00,,,0.00,WUHU21623XXSP,2013-06-22 02:30:00,
2013-06-21 21:35:00,79.3,68.3,29.21,SSE,157,9.4,9.4,69,0.00,,,0.00,WUHU21623XXSP,2013-06-22 02:35:00,
2013-06-21 21:40:00,79.3,68.3,29.21,SE,135,0.0,9.4,69,0.00,,,0.00,WUHU21623XXSP,2013-06-22 02:40:00,
2013-06-21 21:45:00,79.3,68.3,29.21,SE,135,0.0,2.0,69,0.00,,,0.00,WUHU21623XXSP,2013-06-22 02:45:00,
2013-06-21 21:50:00,79.3,68.3,29.21,SE,135,0.0,2.0,69,0.00,,,0.00,WUHU21623XXSP,2013-06-22 02:50:00,
2013-06-21 21:55:00,79.2,68.5,29.22,SE,135,6.5,6.5,70,0.00,,,0.00,WUHU21623XXSP,2013-06-22 02:55:00,
2013-06-21 22:00:00,79.0,68.4,29.22,SE,135,0.0,6.5,70,0.00,,,0.00,WUHU21623XXSP,2013-06-22 03:00:00,
2013-06-21 22:05:00,79.0,68.4,29.23,SE,135,1.8,6.5,70,0.00,,,0.00,WUHU21623XXSP,2013-06-22 03:05:00,
2013-06-21 22:10:00,79.0,68.4,29.22,SSE,157,3.6,3.6,70,0.00,,,0.00,WUHU21623XXSP,2013-06-22 03:10:00,
2013-06-21 22:15:00,79.0,68.4,29.22,SSE,157,2.2,3.6,70,0.00,,,0.00,WUHU21623XXSP,2013-06-22 03:15:00,
2013-06-21 22:20:00,79.0,68.4,29.22,SSE,157,3.4,3.6,70,0.00,,,0.00,WUHU21623XXSP,2013-06-22 03:20:00,
2013-06-21 22:25:00,78.8,68.2,29.22,South,180,2.5,3.4,70,0.00,,,0.00,WUHU21623XXSP,2013-06-22 03:25:00,
2013-06-21 22:30:00,78.6,68.0,29.22,SE,135,5.8,5.8,70,0.00,,,0.00,WUHU21623XXSP,2013-06-22 03:30:00,
2013-06-21 22:35:00,78.6,68.4,29.22,SE,135,0.0,5.8,71,0.00,,,0.00,WUHU21623XXSP,2013-06-22 03:35:00,
2013-06-21 22:40:00,78.6,68.4,29.22,SE,135,6.0,6.0,71,0.00,,,0.00,WUHU21623XXSP,2013-06-22 03:40:00,
2013-06-21 22:45:00,78.6,68.4,29.22,SE,135,1.1,6.0,71,0.00,,,0.00,WUHU21623XXSP,2013-06-22 03:45:00,
2013-06-21 22:50:00,78.6,68.4,29.22,SSE,157,0.4,1.1,71,0.00,,,0.00,WUHU21623XXSP,2013-06-22 03:50:00,
2013-06-21 22:55:00,78.6,68.4,29.22,SSE,157,4.3,4.3,71,0.00,,,0.00,WUHU21623XXSP,2013-06-22 03:55:00,
2013-06-21 23:00:00,78.6,68.4,29.23,SE,135,4.3,4.3,71,0.00,,,0.00,WUHU21623XXSP,2013-06-22 04:00:00,
2013-06-21 23:01:00,78.6,68.4,29.23,SE,135,4.3,4.3,71,0.00,,,0.00,WUHU21623XXSP,2013-06-22 04:01:00,
2013-06-21 23:06:00,78.6,68.4,29.23,SSE,157,4.7,4.7,71,0.00,,,0.00,WUHU21623XXSP,2013-06-22 04:06:00,
2013-06-21 23:11:00,78.6,68.4,29.22,SE,135,5.8,5.8,71,0.00,,,0.00,WUHU21623XXSP,2013-06-22 04:11:00,
2013-06-21 23:16:00,78.6,68.4,29.22,SSE,157,3.8,5.8,71,0.00,,,0.00,WUHU21623XXSP,2013-06-22 04:16:00,
2013-06-21 23:21:00,78.4,68.2,29.22,SE,135,3.8,3.8,71,0.00,,,0.00,WUHU21623XXSP,2013-06-22 04:21:00,
2013-06-21 23:26:00,78.4,68.6,29.22,SE,135,0.7,4.0,72,0.00,,,0.00,WUHU21623XXSP,2013-06-22 04:26:00,
2013-06-21 23:31:00,78.4,68.6,29.23,SE,135,0.2,4.7,72,0.00,,,0.00,WUHU21623XXSP,2013-06-22 04:31:00,
2013-06-21 23:36:00,78.4,68.6,29.23,SSE,157,2.5,4.7,72,0.00,,,0.00,WUHU21623XXSP,2013-06-22 04:36:00,
2013-06-21 23:57:00,78.4,68.8,29.23,SSE,158,6.7,6.7,72,0.00,,,0.00,WUHU21623XXSP,2013-06-22 04:57:00,